Home > Time Zones > World Clock > Weather > Iran > Kerman > Past weeks

Flag for Iran Weather past 2 weeks in Kerman, Iran

Now
52 °F

Clear.


Feels Like: 49 °F
Forecast: 49 / 86 °F
Wind: 7 mph from Southeast

Location: Kerman Airport

Current Time: Sep 3, 2014 at 7:27:06 AM

Latest Report: Sep 3, 2014 at 6:30 AM


Visibility: 10 mi

Pressure: 30.12 "Hg

Humidity: 30%

Dew point: 21 °F

Location of KermanLocation

Historic Weather in Kerman — Graph

°F

Kerman temperature yesterday

Maximum temperature yesterday: 90 °F (at 4:00 PM)
Minimum temperature yesterday: 50 °F (at 6:30 AM)
Average temperature yesterday: 76 °F

Past Weeks' High & Low Weather Summary

 TemperatureHumidityPressure
High95 °F (Aug 19, 3:20 PM)47% (Aug 29, 4:30 AM)30.21 "Hg (Aug 29, 4:30 AM)
Low46 °F (Aug 30, 6:30 AM)1% (Aug 30, 3:30 PM)29.98 "Hg (Aug 22, 3:30 AM)
Average78 °F11%30.08 "Hg
* Reported Aug 19 5:30 AM — Sep 3 5:30 AM, Kerman, Weather by CustomWeather, © 2014

Note: Actual official high and low records may vary slightly from our data, if they occured in-between our weather recording intervals... More about our weather records

Advertising

Kerman weather history for previous 24 hours

 ConditionsComfort  
Time TempWeatherWind HumidityBarometerVisibility
5:30 AM
Sep 3
54 °FClear.5 mph28%30.12 "Hg10 mi
4:30 AM55 °FClear.7 mph24%30.09 "Hg10 mi
3:30 AM59 °FClear.No wind23%30.09 "Hg10 mi
2:30 AM59 °FClear.5 mph21%30.09 "Hg10 mi
1:30 AM68 °FClear.7 mph17%30.09 "Hg10 mi
12:30 AM70 °FClear.5 mph15%30.09 "Hg10 mi
11:30 PM
Sep 2
72 °FClear.7 mph15%30.09 "Hg10 mi
10:30 PM73 °FClear.9 mph13%30.09 "Hg10 mi
9:30 PM79 °FClear.7 mph10%30.07 "Hg10 mi
8:30 PM79 °FSunny.12 mph11%30.04 "Hg10 mi
7:30 PM81 °FSunny.12 mph10%30.01 "Hg10 mi
7:00 PM82 °FSunny.16 mph9%30.01 "Hg10 mi
6:30 PM86 °FSunny.12 mph5%30.01 "Hg10 mi
5:30 PM88 °FPassing clouds.9 mph4%30.01 "HgN/A
5:00 PM90 °FPassing clouds.12 mph4%30.01 "HgN/A
4:30 PM90 °FPassing clouds.7 mph3%30.01 "HgN/A
4:00 PM90 °FPassing clouds.7 mph4%30.01 "HgN/A
3:30 PM88 °FPassing clouds.7 mph3%30.01 "HgN/A
3:00 PM88 °FPassing clouds.12 mph3%30.01 "HgN/A
2:30 PM88 °FPassing clouds.9 mph4%30.04 "HgN/A
2:00 PM86 °FSunny.9 mph6%30.04 "Hg10 mi
1:30 PM86 °FSunny.9 mph6%30.04 "Hg10 mi
1:00 PM86 °FSunny.7 mph6%30.04 "Hg10 mi
12:30 PM84 °FSunny.12 mph6%30.07 "Hg10 mi
12:00 PM84 °FSunny.9 mph8%30.07 "Hg10 mi
11:30 AM84 °FSunny.5 mph8%30.09 "Hg10 mi
11:00 AM81 °FSunny.7 mph9%30.09 "Hg10 mi
10:30 AM79 °FSunny.7 mph9%30.09 "Hg10 mi
10:00 AM77 °FSunny.5 mph10%30.09 "Hg10 mi
9:30 AM77 °FSunny.No wind11%30.09 "Hg10 mi
9:00 AM75 °FSunny.No wind11%30.09 "Hg10 mi
8:30 AM70 °FSunny.5 mph13%30.09 "Hg10 mi
8:00 AM55 °FSunny.5 mph23%30.07 "Hg10 mi
7:30 AM55 °FClear.5 mph23%30.07 "Hg10 mi
Weather by CustomWeather, © 2014

See weather overviewHow to use our weather pages